Station JNEA2 - 9452210 - Juneau, AK Image indicating link to RSS feed of recent meteorological observations for station JNEA2


Conditions at JNEA2 as of
(8:48 am AKDT)
1648 GMT on 04/18/2024:
     

Click on the graph icon in the table below to see a time series plot of the last five days of that observation.

5-day plot - Wind Speed Wind Speed (WSPD): 0.0 kts
5-day plot - Wind Gust Wind Gust (GST): 1.9 kts
5-day plot - Atmospheric Pressure Atmospheric Pressure (PRES):30.58 in
5-day plot - Air Temperature Air Temperature (ATMP): 39.0 °F
5-day plot - Water Temperature Water Temperature (WTMP): 41.5 °F
5-day plot - Wind Speed at 10 Meters Wind Speed at 10 meters (WSPD10M): 0.0 kts
5-day plot - Wind Speed at 20 Meters Wind Speed at 20 meters (WSPD20M): 0.0 kts
5-day plot -  Wind Speed, Wind Gust and Atmospheric Pressure Combined plot of Wind Speed, Gust, and Air Pressure
NOS Water Level Observation Network Water Level
Previous observations
TIME
(AKDT)
5-day plot - Wind Direction
WDIR
 
5-day plot - Wind Speed
WSPD
kts
5-day plot - Wind Gust
GST
kts
5-day plot - Wave Height
WVHT
ft
5-day plot - Dominant Wave Period
DPD
sec
5-day plot - Average Wave Period
APD
sec
5-day plot - Mean Wave Direction
MWD
 
5-day plot - Atmospheric Pressure
PRES
in
5-day plot - Pressure Tendency
PTDY
in
5-day plot - Air Temperature
ATMP
°F
5-day plot - Water Temperature
WTMP
°F
5-day plot - Dew Point
DEWP
°F
5-day plot - Salinity
SAL
psu
5-day plot - Visibility
VIS
nmi
5-day plot - Tide (above MLLW)
TIDE
ft
2024-04-18 08:42 am- 0.0 1.0----30.59- 38.1 41.7----
2024-04-18 08:36 am- 0.0 1.0----30.59- 37.6 41.7----
2024-04-18 08:30 am- 0.0 1.9----30.59- 37.4 41.7----
2024-04-18 08:24 am E 1.0 1.9----30.59- 36.7 41.7----
2024-04-18 08:18 am- 0.0 2.9----30.59- 35.8 41.7----
2024-04-18 08:12 am- 0.0 1.0----30.59- 34.9 41.7----
2024-04-18 08:06 am- 0.0 0.0----30.59- 34.5 41.7----
2024-04-18 08:00 am- 0.0 1.9----30.59+0.00 34.3 41.5----
2024-04-18 07:54 am- 0.0 2.9----30.60- 34.2 41.5----
2024-04-18 07:48 amWNW 2.9 2.9----30.59- 34.2 41.5----
2024-04-18 07:42 am- 0.0 2.9----30.60- 33.3 41.5----
2024-04-18 07:36 am NW 1.9 2.9----30.60- 33.4 41.5----
2024-04-18 07:30 am- 0.0 1.0----30.60- 33.6 41.5----
2024-04-18 07:24 am- 0.0 0.0----30.60- 33.4 41.7----
2024-04-18 07:18 am- 0.0 1.9----30.60- 33.1 41.9----
2024-04-18 07:12 amNNW 1.0 2.9----30.60- 33.1 41.9----
2024-04-18 07:06 am NW 1.9 2.9----30.60- 32.5 41.9----
2024-04-18 07:00 am NW 1.9 1.9----30.60-0.01 32.4 41.9----
2024-04-18 06:54 amWNW 1.9 2.9----30.60- 32.4 41.9----
2024-04-18 06:48 amWNW 1.9 2.9------------
2024-04-18 06:42 am NW 1.9 2.9------------
2024-04-18 06:36 amWNW 2.9 4.1------------
2024-04-18 06:30 am NW 1.9 2.9----30.60- 32.2 41.7----
2024-04-18 06:24 amWNW 2.9 2.9----30.60- 32.2 41.7----
2024-04-18 06:18 amWNW 1.9 4.1----30.60- 32.4 41.9----
2024-04-18 06:12 amWNW 2.9 4.1----30.60- 32.2 41.9----
2024-04-18 06:06 am NW 1.0 2.9----30.60- 32.4 42.3----
2024-04-18 06:00 am- 0.0 5.1----30.60+0.00 32.5 42.4----
2024-04-18 05:54 am NW 4.1 4.1----30.60- 32.2 42.6----
2024-04-18 05:48 am NW 2.9 4.1----30.60- 32.2 42.8----
2024-04-18 05:42 am NW 1.9 4.1----30.60- 32.5 43.0----
2024-04-18 05:36 am NW 1.9 4.1----30.60- 32.5 43.2----
2024-04-18 05:30 am NW 1.9 4.1----30.60- 32.7 43.3----
2024-04-18 05:24 am NW 2.9 4.1----30.60- 32.9 43.3----
2024-04-18 05:18 am NW 2.9 4.1----30.60- 32.9 43.3----
2024-04-18 05:12 am NW 2.9 4.1----30.60- 32.9 43.3----
2024-04-18 05:06 amWNW 1.9 2.9----30.60- 33.4 43.3----
2024-04-18 05:00 amWNW 1.9 2.9----30.60+0.00 33.8 43.5----
2024-04-18 04:54 am NW 1.9 2.9----30.60- 33.6 43.7----
2024-04-18 04:48 am NW 1.9 2.9----30.60- 33.4 43.7----
2024-04-18 04:42 am NW 1.0 1.9----30.60- 33.8 43.9----
2024-04-18 04:36 amWNW 1.0 1.9----30.60- 34.0 43.9----
2024-04-18 04:30 am- 0.0 0.0----30.60- 34.5 43.9----
2024-04-18 04:24 am- 0.0 1.0----30.60- 34.2 44.2----
2024-04-18 04:18 am- 0.0 1.0----30.60- 34.3 44.2----
2024-04-18 04:12 am- 0.0 1.0----30.60- 34.7 44.2----
2024-04-18 04:06 am- 0.0 0.0----30.60- 34.3 44.2----
2024-04-18 04:00 am- 0.0 1.0----30.61+0.01 34.3 44.4----
2024-04-18 03:54 am NW 1.0 1.9----30.61- 34.5 44.4----
2024-04-18 03:48 amWNW 1.9 1.9----30.61- 34.3 44.4----
2024-04-18 03:42 amWNW 1.9 1.9----30.61- 34.3 44.4----
2024-04-18 03:36 amWNW 1.9 4.1----30.61- 34.7 44.2----
2024-04-18 03:30 am NW 4.1 4.1----30.61- 34.5 44.2----
2024-04-18 03:24 am NW 1.9 4.1----30.61- 34.3 44.1----
2024-04-18 03:18 am NW 1.9 2.9----30.61- 34.5 44.1----
2024-04-18 03:12 amWNW 1.9 2.9----30.61- 35.4 44.1----
2024-04-18 03:06 am NW 2.9 4.1----30.60- 35.4 44.1----
2024-04-18 03:00 am NW 2.9 4.1----30.60+0.00 35.1 44.1----
2024-04-18 02:54 am NW 2.9 4.1----30.60- 35.1 43.9----
2024-04-18 02:48 am- 0.0 1.9----30.60- 35.8 43.9----
2024-04-18 02:42 am- 0.0 0.0----30.60- 35.8 43.9----
2024-04-18 02:36 am- 0.0 0.0----30.60- 35.8 44.1----
2024-04-18 02:30 am- 0.0 0.0----30.60- 36.1 44.1----
2024-04-18 02:24 am- 0.0 0.0----30.60- 36.1 44.1----
2024-04-18 02:18 am- 0.0 1.0----30.60- 36.1 44.1----
2024-04-18 02:12 am- 0.0 0.0----30.60- 36.3 44.2----
2024-04-18 02:06 am- 0.0 0.0----30.60- 36.3 44.2----
2024-04-18 02:00 am- 0.0 1.9----30.60+0.00 36.3 44.1----
2024-04-18 01:54 am- 0.0 1.0----30.60- 36.5 44.1----
2024-04-18 01:48 am- 0.0 0.0----30.60- 36.3 43.9----
2024-04-18 01:42 am- 0.0 0.0----30.60- 36.3 43.9----
2024-04-18 01:36 am- 0.0 0.0----30.60- 36.5 43.7----
2024-04-18 01:30 am- 0.0 0.0----30.60- 36.7 43.7----
2024-04-18 01:24 am- 0.0 0.0----30.60- 36.7 43.9----
2024-04-18 01:18 am- 0.0 0.0----30.60- 36.7 43.9----
2024-04-18 01:12 am- 0.0 1.0----30.60- 37.0 43.9----
2024-04-18 01:06 am- 0.0 1.0----30.60- 37.0 43.9----
2024-04-18 01:00 am- 0.0 1.9----30.60+0.01 37.0 43.9----
2024-04-18 12:54 amWNW 1.9 2.9----30.60- 37.0 43.9----
2024-04-18 12:48 am NW 1.9 2.9----30.60- 37.2 43.9----
2024-04-18 12:42 amWNW 2.9 4.1----30.60- 37.4 43.9----
2024-04-18 12:36 am W 4.1 4.1----30.60- 37.6 43.9----
2024-04-18 12:30 am W 1.9 2.9----30.60- 38.3 43.7----
2024-04-18 12:24 am NW 2.9 2.9----30.60- 37.9 43.5----
2024-04-18 12:18 am NW 1.0 2.9----30.60- 37.9 43.5----
2024-04-18 12:12 amWNW 1.9 2.9----30.60- 38.3 42.8----
2024-04-18 12:06 amWNW 2.9 4.1----30.60- 38.3 42.6----
2024-04-18 12:00 am- 0.0 1.9----30.60+0.01 38.5 42.6----
2024-04-17 11:54 pmWNW 1.9 2.9----30.60- 38.7 42.6----
2024-04-17 11:48 pmWNW 1.0 1.9----30.60- 38.8 42.6----
2024-04-17 11:42 pmWNW 1.9 2.9----30.60- 39.0 42.6----
2024-04-17 11:36 pmWNW 1.9 2.9----30.60- 39.2 42.6----
2024-04-17 11:30 pmWNW 1.9 2.9----30.59- 39.4 42.6----
2024-04-17 11:24 pm NW 1.9 2.9----30.59- 39.6 42.6----
2024-04-17 11:18 pm W 1.9 2.9----30.59- 40.1 42.3----
2024-04-17 11:12 pmWNW 1.0 4.1----30.59- 40.8 42.3----
2024-04-17 11:06 pm NW 1.9 4.1----30.59- 40.6 41.9----
2024-04-17 11:00 pm NW 1.9 4.1----30.59+0.02 40.3 41.5----
2024-04-17 10:54 pmWNW 1.0 1.9----30.59- 40.8 41.4----
2024-04-17 10:48 pm- 0.0 1.0----30.59- 41.2 41.4----
2024-04-17 10:42 pm- 0.0 1.0----30.59- 41.4 41.4----
2024-04-17 10:36 pm- 0.0 0.0----30.59- 41.5 41.5----
2024-04-17 10:30 pm- 0.0 0.0----30.59- 41.4 41.7----
2024-04-17 10:24 pm- 0.0 1.0----30.59- 41.9 42.1----
2024-04-17 10:18 pm W 1.0 1.9----30.59- 41.9 43.0----
2024-04-17 10:12 pm NW 1.9 1.9----30.59- 41.9 44.1----
2024-04-17 10:06 pm- 0.0 1.9----30.59- 42.8 44.8----
2024-04-17 10:00 pm W 1.9 2.9----30.59+0.02 42.4 45.0----
2024-04-17 09:54 pmNNW 1.0 1.9----30.59- 43.5 45.1----
2024-04-17 09:48 pmWSW 1.9 2.9----30.59- 42.8 45.0----
2024-04-17 09:42 pmWNW 1.9 2.9----30.59- 43.5 45.0----
2024-04-17 09:36 pm W 1.9 4.1----30.58- 43.3 44.6----
2024-04-17 09:30 pm W 1.0 2.9----30.58- 43.3 43.5----
2024-04-17 09:24 pmWNW 1.9 2.9----30.58- 44.2 42.6----
2024-04-17 09:18 pm NW 1.9 2.9----30.58- 44.8 41.9----
2024-04-17 09:12 pm NW 1.9 1.9----30.58- 44.8 42.4----
2024-04-17 09:06 pm- 0.0 1.0----30.58- 44.6 43.2----
2024-04-17 09:00 pm- 0.0 1.0----30.58+0.01 44.4 43.7----
2024-04-17 08:54 pm SE 1.0 2.9----30.58- 45.0 43.7----
2024-04-17 08:48 pm- 0.0 1.0----30.58- 45.3 43.5----
2024-04-17 08:42 pm- 0.0 1.0----30.58- 45.5 43.2----
2024-04-17 08:36 pm- 0.0 1.9----30.58- 45.1 43.0----
2024-04-17 08:30 pm- 0.0 1.9----30.58- 44.2 43.0----
2024-04-17 08:24 pm S 1.0 1.9----30.58- 44.6 43.0----
2024-04-17 08:18 pm E 1.0 1.9----30.58- 45.0 42.8----
2024-04-17 08:12 pm- 0.0 1.9----30.58- 45.3 42.4----
2024-04-17 08:06 pmSSW 1.0 1.9----30.58- 45.7 41.9----
2024-04-17 08:00 pmESE 1.0 2.9----30.58-0.01 45.7 41.0----
2024-04-17 07:54 pm- 0.0 1.9----30.58- 45.7 40.8----
2024-04-17 07:48 pmESE 1.9 6.0----30.57- 48.6 40.8----
2024-04-17 07:42 pm- 0.0 5.1----30.57- 48.4 41.0----
2024-04-17 07:36 pm- 0.0 5.1----30.57- 47.8 41.0----
2024-04-17 07:30 pmWSW 1.0 4.1----30.57- 47.3 41.0----
2024-04-17 07:24 pm S 1.9 4.1----30.57- 46.8 41.0----
2024-04-17 07:18 pm- 0.0 1.9----30.57- 50.4 41.4----
2024-04-17 07:12 pm- 0.0 1.9----30.57- 49.5 41.7----
2024-04-17 07:06 pm SE 1.9 1.9----30.57- 48.2 41.7----
2024-04-17 07:00 pmESE 1.0 1.9----30.57-0.02 49.3 41.5----
2024-04-17 06:54 pm- 0.0 1.0----30.57- 50.4 41.4----
2024-04-17 06:48 pm- 0.0 1.0----30.57- 50.7 41.4----
2024-04-17 06:42 pm- 0.0 1.9----30.57- 52.0 41.4----
2024-04-17 06:36 pm- 0.0 1.0----30.57- 52.5 41.5----
2024-04-17 06:30 pmSSE 1.9 2.9----30.57- 53.1 41.7----
2024-04-17 06:24 pm E 1.9 4.1----30.57- 54.0 41.9----
2024-04-17 06:18 pmNNW 2.9 6.0----30.57- 54.5 41.9----
2024-04-17 06:12 pm- 0.0 2.9----30.57- 54.9 41.9----
2024-04-17 06:06 pm N 2.9 9.9----30.58- 54.9 41.9----
2024-04-17 06:00 pm N 5.1 9.9----30.58-0.02 54.0 42.1----
2024-04-17 05:54 pmENE 2.9 7.0----30.58- 54.5 42.1----
2024-04-17 05:48 pm N 4.1 8.9----30.58- 54.5 41.9----
2024-04-17 05:42 pm NW 1.0 5.1----30.58- 55.8 42.1----
2024-04-17 05:36 pmSSW 1.9 2.9----30.58- 55.9 42.1----
2024-04-17 05:30 pm- 0.0 1.0----30.58- 56.7 42.1----
2024-04-17 05:24 pm- 0.0 1.9----30.58- 56.3 42.1----
2024-04-17 05:18 pm- 0.0 1.9----30.58- 57.0 41.9----
2024-04-17 05:12 pm- 0.0 1.0----30.58- 56.8 42.1----
2024-04-17 05:06 pm- 0.0 1.0----30.58- 56.7 42.1----
2024-04-17 05:00 pm- 0.0 1.9----30.58-0.02 56.5 42.3----
2024-04-17 04:54 pm- 0.0 1.9----30.58- 56.7 42.8----
2024-04-17 04:48 pm- 0.0 2.9----30.58- 55.4 43.0----
2024-04-17 04:42 pm- 0.0 1.9----30.59- 56.5 43.0----
2024-04-17 04:36 pm SW 1.0 4.1----30.59- 55.9 43.5----
2024-04-17 04:30 pm- 0.0 2.9----30.59- 56.8 43.3----
2024-04-17 04:24 pmSSW 2.9 5.1----30.59- 55.4 43.3----
2024-04-17 04:18 pm SW 2.9 2.9----30.59- 55.6 43.3----
2024-04-17 04:12 pm- 0.0 4.1----30.59- 56.1 43.3----
2024-04-17 04:06 pmESE 1.9 5.1----30.59- 54.1 43.2----
2024-04-17 04:00 pmSSE 4.1 5.1----30.59-0.02 52.9 42.8----
2024-04-17 03:54 pmSSE 4.1 7.0----30.59- 53.8 42.8----
2024-04-17 03:48 pmSSE 5.1 6.0----30.59- 52.7 43.0----
2024-04-17 03:42 pmSSE 5.1 6.0----30.59- 53.4 43.0----
2024-04-17 03:36 pmSSE 5.1 7.0----30.59- 52.7 43.0----
2024-04-17 03:30 pmSSE 5.1 6.0----30.59- 52.5 43.0----
2024-04-17 03:24 pmSSE 5.1 7.0----30.59- 53.1 42.8----
2024-04-17 03:18 pmSSE 5.1 6.0----30.59- 53.2 42.6----
2024-04-17 03:12 pmSSE 5.1 6.0----30.60- 52.9 42.6----
2024-04-17 03:06 pmSSE 4.1 6.0----30.60- 52.9 42.8----
2024-04-17 03:00 pm SE 5.1 5.1----30.60-0.01 52.7 42.8----
2024-04-17 02:54 pmESE 4.1 5.1----30.60- 53.6 42.8----
2024-04-17 02:48 pm SE 5.1 6.0----30.60- 52.9 42.8----
2024-04-17 02:42 pm SE 5.1 6.0----30.60- 52.9 42.8----
2024-04-17 02:36 pm SE 5.1 6.0----30.60- 52.5 42.6----
2024-04-17 02:30 pm SE 5.1 6.0----30.60- 52.3 42.6----
2024-04-17 02:24 pm SE 4.1 5.1----30.60- 52.7 42.6----
2024-04-17 02:18 pmESE 5.1 6.0----30.60- 52.9 42.4----
2024-04-17 02:12 pm SE 5.1 6.0----30.60- 52.5 42.4----
2024-04-17 02:06 pm SE 5.1 6.0----30.60- 52.0 42.4----
2024-04-17 02:00 pm SE 4.1 5.1----30.60-0.01- 42.4----
2024-04-17 01:54 pm E 1.9 4.1----30.61-- 42.4----
2024-04-17 01:48 pm E 1.9 5.1----30.61- 53.1 42.6----
2024-04-17 01:42 pm E 2.9 5.1----30.61- 52.7 42.8----
2024-04-17 01:36 pm E 1.9 5.1----30.61- 52.9 42.6----
2024-04-17 01:30 pm SE 4.1 5.1----30.61- 52.2 42.4----
2024-04-17 01:24 pm SE 2.9 5.1----30.61- 52.2 42.1----
2024-04-17 01:18 pm SE 5.1 6.0----30.61- 52.0 41.9----
2024-04-17 01:12 pmSSE 5.1 6.0----30.60- 51.3 41.7----
2024-04-17 01:06 pmSSE 5.1 6.0----30.61- 51.1 41.7----
2024-04-17 01:00 pmSSE 4.1 5.1----30.61-0.01 51.3 41.7----
2024-04-17 12:54 pmSSE 2.9 4.1----30.61- 50.4 41.7----
2024-04-17 12:48 pm S 4.1 5.1----30.61- 50.5 41.7----
2024-04-17 12:42 pmSSE 4.1 5.1----30.61- 49.5 41.7----
2024-04-17 12:36 pmSSE 2.9 4.1----30.61- 48.7 41.7----
2024-04-17 12:30 pmSSE 2.9 4.1----30.61- 49.1 41.7----
2024-04-17 12:24 pmSSE 4.1 5.1----30.61- 48.9 41.7----
2024-04-17 12:18 pm SE 4.1 5.1----30.61- 48.7 41.7----
2024-04-17 12:12 pmSSE 4.1 5.1----30.61- 47.7 41.7----
2024-04-17 12:06 pmSSE 5.1 5.1----30.61- 47.8 41.5----
2024-04-17 12:00 pmSSE 4.1 5.1----30.61+0.00 47.3 41.5----
2024-04-17 11:54 amSSE 5.1 6.0----30.61- 46.8 41.5----
2024-04-17 11:48 amSSE 5.1 6.0----30.61- 45.9 41.5----
2024-04-17 11:42 amSSE 6.0 6.0----30.61- 45.5 41.5----
2024-04-17 11:36 amSSE 4.1 5.1----30.61- 45.3 41.5----
2024-04-17 11:30 am S 1.0 2.9----30.61- 46.0 41.4----
2024-04-17 11:24 amSSE 1.0 1.9----30.61- 45.3 41.4----
2024-04-17 11:18 amSSE 1.0 1.9----30.61- 45.0 41.4----
2024-04-17 11:12 am S 1.9 2.9----30.61- 44.6 41.4----
2024-04-17 11:06 am- 0.0 1.9----30.61- 45.1 41.4----
2024-04-17 11:00 am- 0.0 1.9----30.61+0.00 44.8 41.4----
2024-04-17 10:54 am S 1.0 1.9----30.61- 45.0 41.4----
2024-04-17 10:48 am S 1.0 1.9----30.62- 44.4 41.5----
2024-04-17 10:42 am- 0.0 1.0----30.62- 45.0 41.5----
2024-04-17 10:36 am- 0.0 1.9----30.62- 44.2 41.5----
2024-04-17 10:30 am S 1.9 1.9----30.62- 43.0 41.5----
2024-04-17 10:24 am S 1.9 1.9----30.62- 43.3 41.5----
2024-04-17 10:18 am- 0.0 1.0----30.62- 43.9 41.5----
2024-04-17 10:12 amSSE 1.0 1.9----30.62- 43.0 41.5----
2024-04-17 10:06 am S 1.0 1.9----30.62- 42.4 41.5----
2024-04-17 10:00 amSSW 1.0 1.0----30.62+0.00 42.4 41.5----
2024-04-17 09:54 am- 0.0 1.0----30.62- 44.2 41.5----
2024-04-17 09:48 am- 0.0 0.0----30.62- 43.3 41.5----
2024-04-17 09:42 am- 0.0 1.0----30.62- 43.0 41.5----
2024-04-17 09:36 am- 0.0 0.0----30.62- 42.8 41.5----
2024-04-17 09:30 am- 0.0 0.0----30.62- 41.4 41.4----
2024-04-17 09:24 am- 0.0 0.0----30.62- 41.0 41.5----
2024-04-17 09:18 am- 0.0 1.0----30.61- 40.3 41.5----
2024-04-17 09:12 am- 0.0 1.0----30.61- 39.7 41.5----
2024-04-17 09:06 am- 0.0 0.0----30.61- 39.4 41.4----
2024-04-17 09:00 am- 0.0 0.0----30.61+0.01 40.1 41.4----
2024-04-17 08:54 am- 0.0 0.0----30.61- 40.3 41.5----